Time,TemperatureF,DewpointF,PressureIn,WindDirection,WindDirectionDegrees,WindSpeedMPH,WindSpeedGustMPH,Humidity,HourlyPrecipIn,Conditions,Clouds,dailyrainin,SoftwareType,DateUTC
2013-10-25 00:14:00,36.0,29.0,30.30,WNW,298,0.0,1.0,75,0.00,,,0.01,,2013-10-25 04:14:00,
2013-10-25 00:24:00,36.0,29.0,30.30,WNW,298,0.0,0.0,76,0.00,,,0.01,,2013-10-25 04:24:00,
2013-10-25 00:54:00,36.0,29.0,30.30,WNW,298,0.0,0.0,76,0.00,,,0.01,,2013-10-25 04:54:00,
2013-10-25 01:03:00,36.0,29.0,30.30,WNW,298,0.0,0.0,76,0.00,,,0.01,,2013-10-25 05:03:00,
2013-10-25 08:51:00,26.0,24.0,30.40,WNW,298,0.0,0.0,92,0.00,,,0.01,,2013-10-25 12:51:00,
2013-10-25 09:11:00,26.0,24.0,30.41,WNW,298,0.0,0.0,92,0.00,,,0.01,,2013-10-25 13:11:00,
2013-10-25 09:21:00,27.0,25.0,30.42,WNW,298,0.0,1.0,92,0.00,,,0.01,,2013-10-25 13:21:00,
2013-10-25 09:41:00,28.0,26.0,30.42,WNW,298,0.0,0.0,93,0.00,,,0.01,,2013-10-25 13:41:00,
2013-10-25 09:52:00,29.0,27.0,30.42,WNW,298,0.0,1.0,93,0.00,,,0.01,,2013-10-25 13:52:00,
2013-10-25 10:22:00,31.0,29.0,30.43,WNW,298,0.0,1.0,91,0.00,,,0.00,,2013-10-25 14:22:00,
2013-10-25 10:42:00,32.0,29.0,30.44,WNW,298,0.0,1.0,90,0.00,,,0.00,,2013-10-25 14:42:00,
2013-10-25 10:52:00,33.0,30.0,30.44,WNW,298,0.0,1.0,88,0.00,,,0.00,,2013-10-25 14:52:00,
2013-10-25 11:11:00,35.0,31.0,30.44,WNW,298,0.0,1.0,85,0.00,,,0.00,,2013-10-25 15:11:00,
2013-10-25 11:21:00,37.0,32.0,30.44,WNW,298,0.0,1.0,81,0.00,,,0.00,,2013-10-25 15:21:00,
2013-10-25 11:53:00,42.0,34.0,30.44,West,277,0.0,2.0,72,0.00,,,0.00,,2013-10-25 15:53:00,
2013-10-25 12:23:00,45.0,33.0,30.43,West,269,0.0,3.0,62,0.00,,,0.00,,2013-10-25 16:23:00,
2013-10-25 12:43:00,46.0,33.0,30.42,West,269,0.0,2.0,60,0.00,,,0.00,,2013-10-25 16:43:00,
2013-10-25 12:53:00,46.0,32.0,30.43,West,269,0.0,3.0,59,0.00,,,0.00,,2013-10-25 16:53:00,
2013-10-25 13:22:00,47.0,33.0,30.42,West,269,0.0,4.0,57,0.00,,,0.00,,2013-10-25 17:22:00,
2013-10-25 13:52:00,48.0,34.0,30.40,West,265,0.0,1.0,57,0.00,,,0.00,,2013-10-25 17:52:00,
2013-10-25 14:12:00,49.0,33.0,30.40,WSW,258,1.0,4.0,54,0.00,,,0.00,,2013-10-25 18:12:00,
2013-10-25 14:21:00,49.0,33.0,30.39,West,272,1.0,5.0,53,0.00,,,0.00,,2013-10-25 18:21:00,
2013-10-25 14:52:00,49.0,32.0,30.37,West,262,0.0,4.0,51,0.00,,,0.00,,2013-10-25 18:52:00,
2013-10-25 15:11:00,50.0,33.0,30.36,West,272,1.0,4.0,52,0.00,,,0.00,,2013-10-25 19:11:00,
2013-10-25 15:22:00,49.0,33.0,30.35,West,261,1.0,4.0,53,0.00,,,0.00,,2013-10-25 19:22:00,
2013-10-25 15:42:00,49.0,32.0,30.35,West,269,0.0,4.0,52,0.00,,,0.00,,2013-10-25 19:42:00,
2013-10-25 15:52:00,49.0,33.0,30.34,West,265,0.0,4.0,53,0.00,,,0.00,,2013-10-25 19:52:00,
2013-10-25 16:22:00,49.0,33.0,30.33,West,267,0.0,3.0,53,0.00,,,0.00,,2013-10-25 20:22:00,
2013-10-25 16:52:00,49.0,33.0,30.32,West,267,0.0,1.0,53,0.00,,,0.00,,2013-10-25 20:52:00,
2013-10-25 17:22:00,48.0,33.0,30.31,West,261,0.0,1.0,55,0.00,,,0.00,,2013-10-25 21:22:00,
2013-10-25 17:54:00,48.0,33.0,30.30,West,259,0.0,1.0,56,0.00,,,0.00,,2013-10-25 21:54:00,
2013-10-25 18:23:00,47.0,33.0,30.29,West,262,0.0,1.0,58,0.00,,,0.00,,2013-10-25 22:23:00,
2013-10-25 18:42:00,46.0,33.0,30.28,West,261,0.0,1.0,60,0.00,,,0.00,,2013-10-25 22:42:00,
2013-10-25 18:53:00,46.0,34.0,30.28,West,262,0.0,0.0,62,0.00,,,0.00,,2013-10-25 22:53:00,
2013-10-25 19:22:00,43.0,32.0,30.27,West,262,0.0,0.0,65,0.00,,,0.00,,2013-10-25 23:22:00,
2013-10-25 19:52:00,41.0,32.0,30.27,West,262,0.0,0.0,69,0.00,,,0.00,,2013-10-25 23:52:00,
2013-10-25 20:11:00,40.0,32.0,30.27,West,262,0.0,0.0,72,0.00,,,0.00,,2013-10-26 00:11:00,
2013-10-25 20:22:00,39.0,32.0,30.26,West,262,0.0,0.0,75,0.00,,,0.00,,2013-10-26 00:22:00,
2013-10-25 20:42:00,39.0,32.0,30.26,West,261,0.0,0.0,76,0.00,,,0.00,,2013-10-26 00:42:00,
2013-10-25 20:52:00,38.0,32.0,30.25,West,262,0.0,0.0,78,0.00,,,0.00,,2013-10-26 00:52:00,
2013-10-25 21:12:00,38.0,32.0,30.25,West,261,0.0,0.0,80,0.00,,,0.00,,2013-10-26 01:12:00,
2013-10-25 21:22:00,38.0,33.0,30.24,West,262,0.0,1.0,81,0.00,,,0.00,,2013-10-26 01:22:00,
2013-10-25 21:52:00,37.0,32.0,30.23,SSW,195,0.0,0.0,82,0.00,,,0.00,,2013-10-26 01:52:00,
2013-10-25 22:12:00,37.0,31.0,30.23,SSW,195,0.0,1.0,80,0.00,,,0.00,,2013-10-26 02:12:00,
2013-10-25 22:22:00,37.0,31.0,30.23,SSW,195,0.0,1.0,78,0.00,,,0.00,,2013-10-26 02:22:00,
2013-10-25 22:43:00,37.0,30.0,30.22,SSW,195,0.0,1.0,77,0.00,,,0.00,,2013-10-26 02:43:00,
2013-10-25 22:52:00,37.0,30.0,30.22,SSW,195,0.0,1.0,77,0.00,,,0.00,,2013-10-26 02:52:00,
2013-10-25 23:12:00,37.0,30.0,30.22,South,173,0.0,0.0,77,0.00,,,0.00,,2013-10-26 03:12:00,
2013-10-25 23:22:00,37.0,30.0,30.22,South,172,0.0,1.0,77,0.00,,,0.00,,2013-10-26 03:22:00,
2013-10-25 23:54:00,37.0,30.0,30.21,SSE,157,0.0,1.0,76,0.00,,,0.00,,2013-10-26 03:54:00,